Tracking 29065 objects as of 22-Jul-2024
HD Live streaming from Space Station
objects crossing your sky now

DSAT

Track DSAT now!
10-day predictions
DSAT is classified as:


NORAD ID: 42794
Int'l Code: 2017-036AF
Perigee: 494.3 km
Apogee: 645.4 km
Inclination: 97.5 °
Period: 95.9 minutes
Semi major axis: 6940 km
RCS: Unknown
Launch date: June 23, 2017
Source: Italy (IT)
Launch site: SRIHARIKOTA (SRI)

Uplink (MHz):
Downlink (MHz): 437.505
Beacon (MHz): 437.505
Mode: 4800bps GMSK CW
Call sign: U1-DSAT-U1
Status: Inactive

Your satellite tracking list
Your tracking list is empty




NASA's NSSDC Master Catalog

Two Line Element Set (TLE):
1 42794U 17036AF  24203.93318356  .00013871  00000-0  95104-3 0  9994
2 42794  97.4813 184.5625 0108815  32.1572 328.6228 15.01361984385931
Source of the keplerian elements: AMSAT